Location: ????
(32.1228°N, 34.8377°E)
Time: 01:36:20
(UTC+00:00)

Cosmos 2173 Rocket - Pass Details

Date: 21 September 2020
Orbit: 946 x 999 km, 83.0° (Epoch: 21 October)

Event Time Altitude Azimuth Distance (km) Brightness Sun altitude
Rises 02:13:51 0° 355° (N) 3,705 7.1 -16.5°
Reaches altitude 10° 02:16:22 10° 357° (N) 2,759 6.5 -16.0°
Maximum altitude 02:22:44 80° 85° (E) 1,014 4.2 -14.6°
Drops below altitude 10° 02:29:05 10° 172° (S) 2,758 6.4 -13.3°
Sets 02:31:36 0° 173° (S) 3,704 7.0 -12.8°
